Regional Weather Roundup
Issued by NWS Upton, NY

Current Version | Previous Version | Text Only | Print | Product List | Glossary On
Versions: 1 2 3 4 5 6 7 8 9 10 11 12 13 14 15 16 17 18 19 20 21 22 23 24 25 26 27
000
ASUS41 KOKX 152009
RWROKX

REGIONAL WEATHER ROUNDUP
NATIONAL WEATHER SERVICE NEW YORK NY
400 PM EDT TUE AUG 15 2017

NOTE: "FAIR" INDICATES FEW OR NO CLOUDS BELOW 12,000 FEET WITH NO
SIGNIFICANT WEATHER AND/OR OBSTRUCTIONS TO VISIBILITY.

NYZ071-072-176-178-NJZ106-104-152100-
NEW YORK CITY METRO AREA

CITY           SKY/WX    TMP DP  RH WIND       PRES   REMARKS
Central Park   CLOUDY    72  71  97 E3        29.92F FOG
Bronx Bot Gard   N/A     72  70  94 SE1       29.91F
LaGuardia APRT CLOUDY    73  71  93 S7        29.89F
Kennedy INTL   CLOUDY    73  73 100 S7        29.91S
Breezy Point     N/A     70 N/A N/A S6          N/A
Newark/Liberty LGT RAIN  73  70  90 VRB3      29.90S
Teterboro      CLOUDY    74  71  91 S5        29.89S FOG
$$

NYZ177-179-078>081-152100-
LONG ISLAND NEW YORK

CITY           SKY/WX    TMP DP  RH WIND       PRES   REMARKS
Jones Beach      N/A     72 N/A N/A S5          N/A
Matinecock PT    N/A     72 N/A N/A SW5         N/A
Farmingdale    LGT RAIN  72  69  90 S7        29.90F
MacArthur/ISP  CLOUDY    73  69  87 S6        29.90F
Shirley        CLOUDY    73  70  90 SE5       29.91F
Mt Sinai Harb    N/A    N/A N/A N/A S5          N/A
Westhampton    NOT AVBL
East Hampton   DRIZZLE   70  67  92 CALM      29.91F
Montauk          N/A     72  70  93 VRB5      29.93F
$$

NYZ052-065-067-152100-
HUDSON VALLEY

CITY           SKY/WX    TMP DP  RH WIND       PRES   REMARKS
White Plains   LGT RAIN  73  69  87 CALM      29.91F
Larchmont Harb   N/A     72 N/A N/A S5          N/A
Croton On Huds   N/A     73 N/A N/A S3          N/A
Newburgh       CLOUDY    73  72  94 VRB5      29.93S
Montgomery     CLOUDY    74  69  85 CALM      29.90F
Poughkeepsie   CLOUDY    75  67  76 W5        29.89S
Albany         CLOUDY    78  66  66 SE8       29.87F
$$

NJZ001-105-106-008-010-013-015-019>022-104-152100-
NEW JERSEY

CITY           SKY/WX    TMP DP  RH WIND       PRES   REMARKS
Newark/Liberty LGT RAIN  73  70  90 VRB3      29.90S
Teterboro      CLOUDY    74  71  91 S5        29.89S FOG
Caldwell       CLOUDY    73  71  93 CALM      29.91S
Somerville     CLOUDY    74  72  93 CALM      29.88F
Linden         CLOUDY    73  70  90 CALM      29.90F
Perth Amboy      N/A     72 N/A N/A MISG        N/A
Sussex         CLOUDY    73  70  90 CALM      29.91S
Andover          N/A     72  69  90 CALM      29.91F
Trenton        CLOUDY    74  72  93 N3        29.90S FOG
Millville      LGT RAIN  78  76  93 NE6       29.87F
Atlantic City  LGT RAIN  76  75  97 E6        29.88F
Wrightstown    CLOUDY    75  73  94 SE5       29.87S
Toms River     CLOUDY    75  74  96 SE6       29.90S
Belmar         CLOUDY    74  71  91 E6        29.90F
$$

PAZ047>061-062-071-152100-
EASTERN PENNSYLVANIA

CITY           SKY/WX    TMP DP  RH WIND       PRES   REMARKS
Philadelphia   CLOUDY    77  73  87 CALM      29.89S
Allentown      CLOUDY    74  68  81 CALM      29.91S HAZE
Scranton       PTSUNNY   78  66  66 VRB7      29.92F
$$

CTZ002-004>006-009-010-012-RIZ004-006-007-MAZ004-011-015-152100-
SOUTHERN NEW ENGLAND
 IN CT

CITY           SKY/WX    TMP DP  RH WIND       PRES   REMARKS
Bradley INTL   CLOUDY    76  65  68 S8        29.89F
Hartford       CLOUDY    76  66  71 S10       29.89F
Danbury        CLOUDY    74  67  78 S9        29.92F
Wtrbury/Oxford CLOUDY    72  67  84 S7        29.93F
Norwalk Harbor   N/A     72 N/A N/A S5          N/A
Bridgeport     CLOUDY    74  68  81 S5        29.90F
Meriden        CLOUDY    74  66  76 S7        29.90F
New Haven      CLOUDY    74  68  81 S6        29.91F
Chester        NOT AVBL
Groton         LGT RAIN  71  66  84 SE5       29.91F
Wilimantic     CLOUDY    74  66  76 S8        29.91F

 IN RI

CITY           SKY/WX    TMP DP  RH WIND       PRES   REMARKS
Providence     CLOUDY    74  63  68 S12       29.92S
Block Island   LGT RAIN  70  67  90 S10       29.93S
Westerly       LGT RAIN  71  67  87 S6        29.92F
 IN MA

CITY           SKY/WX    TMP DP  RH WIND       PRES   REMARKS
Boston         CLOUDY    78  64  61 SW8       29.88F
Worcester      CLOUDY    73  61  65 SW9       29.93S
Westfield      CLOUDY    76  68  76 S7        29.89F
Provincetown   CLOUDY    74  65  73 S10       29.91S
Nantucket      LGT RAIN  67  67 100 S7        29.93S VSB 1/4
$$

ANZ330-335-338-340-345-350-353-355-152100-
COASTAL MARINE OBSERVATIONS


STATION/POSITION TIME  SKY/WX   TEMP    WIND        PRES    VSBY  WAVE
                                AIR SEA DIR/SP/G                  HT/PER
                 (UTC)          (F)     (DEG/KT/KT) (MB)    (MI)  (FT/S)
NY HARB ENTRANCE 1850            73 75  150/  4/  6 1012.3          3/ 9
GREAT SOUTH BAY  1915            72 77  180/  6/  8   N/A
23 SSW MONTAUK P 1950            71 71              1013.2          3/10
15 E BARNEGAT LI 1930               76                N/A           4/12
HUDSON CANYON    1850            73 74  150/  6/  8 1011.2          3/11
KINGS POINT      1948            72 73  210/  4/  5 1012.4
EXECUTION ROCKS  NOT AVBL
WESTERN LI SOUND NOT AVBL
CENTRAL LI SOUND NOT AVBL
EASTERN LI SOUND NOT AVBL
ROBBINS REEF     1942                   170/  6/  7 1013.1
$$


>>>>>>>>>>>>>>>>>>>>>>>>>>>> KEY <<<<<<<<<<<<<<<<<<<<<<<<<<<
>                                                          <
>     SKY/WX - Sky Condition/Present Weather               <
>     TMP    - Temperature in Fahrenheit                   <
>     DP     - Dew Point in Fahrenheit                     <
>     RH     - Relative Humidity in Percent                <
>     WIND   - Direction (from) and Speed in MPH           <
>     PRES   - Mean Sea Level Pressure (inches of Hg)      <
>     WCI    - Wind Chill Index                            <
>     VSB    - VISIBILITY IN MILES                         <
>     HX     - HEAT INDEX                                  <
>     TC     - TEMPERATURE IN CELSIUS                      <
>     VRB    - VARIABLE WIND DIRECTION                     <
>                                                          <
>>>>>>>>>>>>>>>>>>>>>>>>>>>> KEY <<<<<<<<<<<<<<<<<<<<<<<<<<<




USA.gov is the U.S. government's official web portal to all federal, state and local government web resources and services.